This demonstration page uses our WeatherBlox Daily Observations layout. Learn more.

Left ArrowRight Arrow

Hourly Observations for June 30, 2015

Temp ( °F °C ) Dew Point ( °F °C ) Humidity (%) Winds ( mph kmh ) Pressure ( in mb ) Visibility ( mi km ) Precip ( " mm )
12:53 am 00:53 Hazy 74 23.3 51 10.6 45 45 ESE 5 7 29.88 1012 3 4 0.00 0.03
1:53 am 01:53 Hazy 71 21.7 48 8.9 44 44 E 9 15 29.85 1011 2 3 0.00 0.00
2:53 am 02:53 Hazy 68 20 48 8.9 49 49 E 7 11 29.85 1011 2 2 0.00 0.00
3:53 am 03:53 Hazy 64 17.8 49 9.4 58 58 E 3 6 29.83 1010 2 2 0.00 0.00
4:53 am 04:53 Hazy 63 17.2 49 9.4 60 60 ESE 5 7 29.84 1011 2 2 0.00 0.00
5:21 am 05:21 Hazy 62 16.7 50 10 65 65 Calm 29.85 1011 1 2 0.00 0.00
5:43 am 05:43 Hazy 64 17.8 56 13.3 75 75 SW 8 13 29.83 1010 2 3 0.00 0.00
5:53 am 05:53 Sunny 68 20 60 15.6 76 76 SW 15 24 29.83 1010 9 14 0.00 0.00
6:53 am 06:53 Hazy 69 20.6 56 13.3 63 63 WSW 10 17 29.83 1010 3 5 0.00 0.00
7:01 am 07:01 Hazy 69 20.6 56 13.3 63 63 WSW 10 17 29.80 1009 3 4 0.00 0.00
7:53 am 07:53 Hazy 73 22.8 55 12.8 53 53 WSW 14 22 29.84 1010 3 5 0.00 0.00
8:28 am 08:28 Hazy 75 24 55 13 50 50 WSW 14 22 29.80 1009 3 4 0.00 0.00
8:50 am 08:50 Hazy 79 26 55 13 45 45 WSW 13 20 29.77 1008 3 5 0.00 0.00
8:53 am 08:53 Hazy 78 25.6 55 12.8 45 45 WSW 13 20 29.83 1010 3 5 0.00 0.00
9:53 am 09:53 Hazy 83 28.3 55 12.8 38 38 W 8 13 29.82 1010 6 10 0.00 0.00
10:53 am 10:53 Sunny 87 30.6 54 12.2 32 32 NW 16 26 29.80 1009 10 16 0.00 0.00
11:53 am 11:53 Sunny 89 31.7 47 8.3 23 23 W 17 28 29.80 1009 10 16 0.00 0.00
12:53 pm 12:53 Sunny 91 32.8 45 7.2 20 20 WNW 20 31 29.80 1009 10 16 0.00 0.00
1:53 pm 13:53 Mostly Sunny 91 32.8 53 11.7 27 27 NW 24 39 29.81 1009 10 16 0.00 0.00
2:53 pm 14:53 Mostly Sunny 89 31.7 53 11.7 29 29 NW 25 41 29.83 1010 10 16 0.00 0.00
3:53 pm 15:53 Mostly Sunny 89 31.7 54 12.2 30 30 NW 21 33 29.84 1011 10 16 0.00 0.00
4:53 pm 16:53 Mostly Sunny 89 31.7 53 11.7 29 29 WNW 23 37 29.85 1011 10 16 0.00 0.00
5:53 pm 17:53 Hazy 87 30.6 53 11.7 31 31 NW 21 33 29.85 1011 6 10 0.00 0.00
6:53 pm 18:53 Hazy 85 29.4 53 11.7 33 33 NNW 14 22 29.85 1011 4 6 0.00 0.00
7:53 pm 19:53 Hazy 83 28.3 53 11.7 36 36 NNW 17 28 29.86 1011 4 6 0.00 0.00
8:35 pm 20:35 Hazy 80 26.7 53 11.7 39 39 N 14 22 29.80 1009 2 3 0.00 0.00
8:53 pm 20:53 Mostly Cloudy with Haze 79 26.1 53 11.7 41 41 NNE 8 13 29.87 1012 2 3 0.00 0.00
9:45 pm 21:45 Hazy 74 23.3 55 12.8 52 52 NE 8 13 29.85 1011 3 4 0.00 0.00
9:53 pm 21:53 Mostly Cloudy with Haze 73 22.8 55 12.8 53 53 NE 9 15 29.90 1013 3 4 0.00 0.00
11:53 pm 23:53 Hazy 67 19.4 55 12.8 66 66 E 5 7 29.93 1013 3 4 0.00 0.00

Powered by AerisWeather